Weather History for Qaanaaq Airport, Greenland

Change the Weather History Date:

Thursday, September 19, 2013

  Actual Average Record
Temperature  
Mean Temperature 32 °F -  
Max Temperature 39 °F - - ()
Min Temperature 24 °F - - ()
Degree Days  
Heating Degree Days 34    
Moisture  
Dew Point 18 °F    
Average Humidity 62    
Maximum Humidity 75    
Minimum Humidity 41    
Precipitation  
Precipitation 0.00 in - - ()
Sea Level Pressure  
Sea Level Pressure 29.70 in    
Wind  
Wind Speed 2 mph ()    
Max Wind Speed 8 mph    
Max Gust Speed -    
Visibility 6.2 miles    
Events      
T = Trace of Precipitation, MM = Missing Value Source: Averaged Metar Reports

Daily Weather History Graph

Daily Weather History Graph

Search for Another Location

Airport:

Trip Planner

Search our weather history database for the weather conditions in past years. The results will help you decide how hot, cold, wet, or windy it might be!

Date:

Astronomy

Sep. 19, 2013 Rise Set
Actual Time 6:51 AM ADT 8:06 PM ADT
Civil Twilight 5:06 AM ADT 9:49 PM ADT
Nautical Twilight 2:03 AM ADT 12:58 AM ADT
Astronomical Twilight Sun does not rise Sun does not rise
Moon 6:40 PM ADT (9/19) 7:51 AM ADT (9/19)
Length of Visible Light 16h 43m
Length of Day
13h 15m
Full, 100% of the Moon is Illuminated
Sep 19
Full
Sep 27
Last Quarter
Oct 4
New
Oct 11
First Quarter
Oct 18
Full

Hourly Weather History & Observations

Time (ADT) Temp. Windchill Dew Point Humidity Pressure Visibility Wind Dir Wind Speed Gust Speed Precip Events Conditions
12:20 AM 28.4 °F - 17.6 °F 64% 29.59 in 6.2 mi SSE 1.2 mph - N/A   Unknown
12:50 AM 26.6 °F - 17.6 °F 69% 29.59 in 6.2 mi Calm Calm - N/A   Unknown
1:20 AM 26.6 °F - 17.6 °F 69% 29.59 in 6.2 mi SSE 1.2 mph - N/A   Unknown
1:50 AM 26.6 °F - 17.6 °F 69% 29.62 in 6.2 mi Calm Calm - N/A   Unknown
2:20 AM 26.6 °F - 15.8 °F 64% 29.62 in 6.2 mi SSE 2.3 mph - N/A   Unknown
2:50 AM 26.6 °F - 14.0 °F 59% 29.62 in 6.2 mi SSE 2.3 mph - N/A   Unknown
3:20 AM 26.6 °F - 14.0 °F 59% 29.62 in 6.2 mi SSE 1.2 mph - N/A   Unknown
3:50 AM 28.4 °F - 14.0 °F 55% 29.62 in 6.2 mi SSE 2.3 mph - N/A   Unknown
4:20 AM 28.4 °F - 15.8 °F 59% 29.62 in 6.2 mi Calm Calm - N/A   Unknown
4:50 AM 26.6 °F - 15.8 °F 64% 29.62 in 6.2 mi Calm Calm - N/A   Unknown
5:20 AM 26.6 °F - 14.0 °F 59% 29.62 in 6.2 mi SSE 2.3 mph - N/A   Unknown
5:50 AM 26.6 °F - 14.0 °F 59% 29.62 in 6.2 mi SSE 1.2 mph - N/A   Unknown
6:20 AM 26.6 °F - 14.0 °F 59% 29.65 in 6.2 mi SSE 2.3 mph - N/A   Unknown
6:50 AM 24.8 °F - 14.0 °F 64% 29.65 in 6.2 mi SSE 2.3 mph - N/A   Unknown
7:20 AM 24.8 °F - 15.8 °F 69% 29.65 in 6.2 mi SSE 2.3 mph - N/A   Partly Cloudy
7:50 AM 24.8 °F - 15.8 °F 69% 29.65 in 6.2 mi SSE 2.3 mph - N/A   Partly Cloudy
8:50 AM 30.2 °F - 15.8 °F 55% 29.68 in 6.2 mi SSE 2.3 mph - N/A   Partly Cloudy
9:50 AM 37.4 °F - 15.8 °F 41% 29.68 in 6.2 mi Variable 1.2 mph - N/A   Partly Cloudy
10:50 AM 35.6 °F - 17.6 °F 48% 29.71 in 6.2 mi Calm Calm - N/A   Partly Cloudy
11:50 AM 39.2 °F 35.9 °F 19.4 °F 45% 29.71 in 6.2 mi WNW 4.6 mph - N/A   Scattered Clouds
12:50 PM 35.6 °F 32.8 °F 19.4 °F 52% 29.71 in 6.2 mi West 3.5 mph - N/A   Mostly Cloudy
1:50 PM 32.0 °F 27.5 °F 21.2 °F 64% 29.74 in 6.2 mi WNW 4.6 mph - N/A   Mostly Cloudy
2:50 PM 32.0 °F 25.6 °F 21.2 °F 64% 29.74 in 6.2 mi WNW 6.9 mph - N/A   Mostly Cloudy
3:20 PM 32.0 °F 27.5 °F 21.2 °F 64% 29.74 in 6.2 mi WNW 4.6 mph - N/A   Unknown
3:50 PM 32.0 °F 28.7 °F 19.4 °F 60% 29.74 in 6.2 mi WNW 3.5 mph - N/A   Unknown
4:20 PM 33.8 °F - 17.6 °F 52% 29.74 in 6.2 mi WNW 1.2 mph - N/A   Unknown
4:50 PM 32.0 °F - 19.4 °F 60% 29.74 in 6.2 mi Variable 2.3 mph - N/A   Unknown
5:20 PM 32.0 °F 28.7 °F 19.4 °F 60% 29.74 in 6.2 mi WNW 3.5 mph - N/A   Unknown
5:50 PM 32.0 °F - 19.4 °F 60% 29.74 in 6.2 mi WNW 2.3 mph - N/A   Unknown
6:20 PM 32.0 °F 24.8 °F 21.2 °F 64% 29.74 in 6.2 mi NW 8.1 mph - N/A   Unknown
6:50 PM 32.0 °F 26.4 °F 21.2 °F 64% 29.77 in 6.2 mi NW 5.8 mph - N/A   Unknown
7:20 PM 30.2 °F 25.4 °F 21.2 °F 69% 29.77 in 6.2 mi NW 4.6 mph - N/A   Unknown
7:50 PM 30.2 °F 25.4 °F 19.4 °F 64% 29.77 in 6.2 mi NNW 4.6 mph - N/A   Unknown
8:20 PM 32.0 °F 28.7 °F 21.2 °F 64% 29.77 in 6.2 mi NW 3.5 mph - N/A   Unknown
8:50 PM 30.2 °F 25.4 °F 21.2 °F 69% 29.77 in 6.2 mi NNW 4.6 mph - N/A   Unknown
9:20 PM 30.2 °F 25.4 °F 21.2 °F 69% 29.77 in 6.2 mi NW 4.6 mph - N/A   Unknown
9:50 PM 30.2 °F - 21.2 °F 69% 29.77 in 6.2 mi NNW 2.3 mph - N/A   Unknown
10:20 PM 30.2 °F - 23.0 °F 75% 29.77 in 6.2 mi NW 2.3 mph - N/A   Unknown
10:50 PM 30.2 °F - 23.0 °F 75% 29.77 in 6.2 mi NW 2.3 mph - N/A   Unknown
11:20 PM 30.2 °F - 23.0 °F 75% 29.77 in 6.2 mi Calm Calm - N/A   Unknown
11:50 PM 30.2 °F - 21.2 °F 69% 29.77 in 6.2 mi NW 2.3 mph - N/A   Unknown